Location: Tel Aviv
(32.0670°N, 34.7670°E)
Time: 13:23:35
(UTC+03:00)

Explorer 11/Cluster Stage 4 - Pass Details

Date: 16 September 2024
Orbit: 464 x 1208 km, 28.8° (Epoch: 05 October)

Event Time Altitude Azimuth Distance (km) Brightness Sun altitude
Rises 04:34:44 0° 205° (SSW) 3,123 - -23.8°
Reaches altitude 10° 04:37:54 10° 184° (S) 2,356 - -23.2°
Exits shadow 04:38:26 12° 179° (S) 2,267 8.7 -23.1°
Maximum altitude 04:41:20 16° 147° (SSE) 2,099 8.9 -22.5°
Drops below altitude 10° 04:45:10 10° 110° (ESE) 2,688 10.0 -21.7°
Sets 04:49:08 0° 91° (E) 3,795 11.4 -20.9°
